Theta_e
309 310 310 309 310 311 308 308 309 311 316 317 316 325 326 328 327 326 326 325 325 324 324 322 323 323 325 329 325 327 335 337 335 336 334 329 331 331 330 327 327 329 330 332 338
308 309 310 310 310 310 308 306 307 309 312 317 316 323 326 325 324 325 325 325 324 325 323 321 323 323 327 327 327 328 335 335 332 331 332 329 330 331 330 328 331 331 331 335 337
308 308 309 309 309 309 310 307 305 307 310 316 316 319 324 324 324 325 325 324 324 324 322 320 322 324 328 328 327 330 334 332 330 329 331 329 330 330 329 329 331 331 333 335 336
308 308 309 309 309 308 309 307 306 305 309 313 316 315 322 321 331 323 324 323 323 323 321 322 322 326 331 330 326 329 327 327 327 327 331 330 330 330 330 330 327 328 334 334 335
308 308 307 308 308 307 305 307 307 306 308 310 316 316 321 322 323 321 323 323 323 323 322 322 323 326 331 328 327 327 327 326 325 326 328 330 331 330 329 328 328 328 334 334 334
308 308 306 306 308 305 306 306 308 308 310 310 315 316 320 325 320 321 322 322 323 322 322 320 322 324 328 329 327 326 327 326 326 327 328 331 331 330 328 327 329 328 328 331 332
307 307 305 307 306 305 305 306 307 307 311 311 315 316 320 321 319 322 323 321 321 322 323 321 321 324 326 329 325 325 328 326 326 327 327 328 330 330 328 328 329 330 328 328 329
308 307 305 306 305 303 305 305 306 306 311 311 314 316 320 317 316 320 323 323 322 322 322 321 321 323 325 326 327 327 327 331 327 327 324 326 334 329 327 328 329 329 328 328 328
307 306 305 305 304 303 303 304 305 306 308 310 314 316 318 314 316 317 321 323 322 322 323 323 324 328 327 330 332 329 330 331 327 325 326 327 333 326 325 326 328 328 328 329 329
306 306 305 304 303 300 302 303 305 305 308 310 313 315 313 312 315 317 321 323 324 323 323 324 326 327 329 331 335 331 330 328 325 322 324 327 325 324 323 324 326 328 328 326 328
306 305 305 304 303 300 302 306 307 309 309 313 314 314 314 311 314 318 319 322 323 324 326 325 325 325 325 329 329 329 332 331 325 321 323 325 327 324 322 322 324 324 324 323 322
306 304 304 304 302 301 302 305 307 308 312 309 312 315 313 312 314 318 318 323 324 326 325 326 327 322 324 326 327 330 330 330 326 322 321 323 323 322 321 321 321 321 320 321 321
306 304 304 304 304 303 303 304 307 305 310 308 313 315 314 313 313 316 320 321 322 325 326 327 324 323 325 325 324 327 330 329 327 322 321 321 321 319 320 319 318 318 317 317 318
306 303 304 304 302 303 304 303 306 305 310 312 315 314 314 315 315 317 319 319 322 323 324 323 318 322 324 326 324 326 322 324 325 323 324 322 329 323 322 318 317 317 316 316 316
305 303 304 302 304 304 304 304 305 303 312 311 315 312 314 316 317 318 317 317 320 323 321 321 319 320 322 323 322 324 324 324 324 325 323 323 323 320 320 317 316 315 314 311 312
304 304 303 302 303 302 303 304 303 307 310 311 311 316 316 316 317 317 317 315 316 320 319 318 316 318 318 319 320 320 321 322 323 325 328 324 323 320 319 318 315 311 311 311 311
304 304 303 303 304 304 304 305 307 309 308 312 311 314 316 318 319 317 317 318 319 321 320 319 319 317 318 321 320 320 319 323 321 320 322 318 323 321 314 312 310 311 311 310 310
304 303 302 303 303 305 304 306 309 308 310 308 312 313 313 317 318 316 316 317 315 314 319 320 319 318 318 318 321 320 317 321 323 322 316 312 312 312 313 311 309 310 311 309 310
303 303 302 302 303 304 305 307 308 306 306 309 310 314 312 311 317 317 316 316 315 315 317 317 319 315 317 316 318 320 320 315 315 311 314 313 313 314 312 312 311 311 310 309 310
303 303 302 301 302 304 302 306 305 303 303 307 315 311 316 313 319 317 317 316 316 314 314 315 317 317 315 316 316 318 315 316 316 315 314 311 313 313 313 312 311 310 310 310 309
302 301 303 301 301 302 305 303 303 304 303 308 311 313 312 313 316 318 317 313 315 315 314 314 315 317 316 317 319 318 317 317 317 317 319 315 311 308 311 310 310 309 310 309 309
303 301 301 300 302 300 302 300 301 305 306 308 309 309 309 309 312 314 314 314 311 314 316 315 315 318 317 313 313 315 317 317 316 316 314 316 315 309 308 308 309 309 309 309 309
297 303 303 300 304 300 298 300 301 304 306 307 308 307 305 308 312 309 312 309 314 315 315 314 316 318 317 314 314 316 315 316 316 313 314 313 314 309 307 308 307 308 309 308 309
301 301 298 298 298 301 301 301 303 301 304 306 307 308 308 308 309 310 310 310 311 312 312 314 316 316 317 315 314 316 315 315 316 312 314 314 313 311 308 309 310 309 309 309 310
298 297 295 302 301 302 302 302 303 302 303 303 306 305 307 309 309 309 309 309 309 310 311 312 314 312 312 312 312 314 315 315 316 315 314 315 313 314 313 312 310 311 310 310 310
299 298 295 295 299 302 302 301 302 301 301 303 304 303 303 303 306 309 309 309 310 310 311 309 309 310 308 311 310 311 311 312 313 313 313 314 314 311 310 310 310 310 310 310 310
298 297 303 298 300 302 301 299 301 300 299 300 302 302 301 301 301 302 304 304 308 309 309 311 308 305 307 308 308 299 308 310 311 311 312 313 311 310 309 310 310 309 309 310 309
Wind_Speed
11 11 8 9 8 8 8 8 8 8 9 9 9 7 6 10 18 18 12 11 10 21 15 19 14 24 26 8 5 3 3 6 15 5 7 9 6 1 4 7 4 3 7 20 26
12 11 11 9 10 9 10 10 9 9 10 9 11 6 12 15 14 8 6 14 12 14 8 12 7 23 7 5 5 4 4 9 6 7 10 12 9 7 5 8 7 8 6 25 25
12 12 11 11 9 10 9 12 11 10 10 12 10 6 15 15 3 5 15 12 11 11 0 4 9 4 6 8 7 5 4 2 6 7 4 11 9 8 7 6 10 12 11 15 19
13 13 12 12 10 10 9 11 12 12 11 12 10 10 9 8 7 8 19 17 15 8 4 5 5 2 6 7 1 5 2 4 4 6 3 10 7 8 5 3 9 17 14 14 11
13 12 13 13 11 8 8 10 12 13 13 13 11 11 9 3 3 9 16 20 13 6 5 4 2 2 5 7 5 8 5 2 0 3 6 7 6 7 8 7 11 14 13 12 10
16 15 13 13 12 10 9 10 11 11 13 12 14 12 5 11 7 12 18 16 13 11 7 8 2 3 6 7 6 3 5 6 5 3 5 6 7 0 8 8 9 12 10 10 10
18 17 13 12 11 10 9 10 11 11 11 11 15 12 5 4 7 14 18 24 18 13 6 7 5 1 7 7 5 7 6 6 5 6 1 2 2 4 9 8 9 9 9 10 9
21 17 14 12 10 9 9 9 10 12 10 10 13 11 6 12 6 14 16 17 17 10 6 8 10 1 1 10 8 5 2 7 5 5 2 4 6 7 5 8 9 9 9 9 9
22 19 14 12 9 8 7 9 10 13 11 12 11 12 4 11 12 17 18 12 18 12 12 12 16 4 3 4 3 5 5 8 5 6 3 5 3 9 5 4 7 8 8 8 7
24 20 15 12 9 6 6 7 8 12 10 14 19 8 4 7 13 17 18 17 10 16 8 7 5 2 5 4 6 3 3 6 8 4 2 5 5 4 4 2 4 5 6 7 5
23 20 15 12 8 5 3 4 3 3 4 9 5 5 11 9 21 10 12 13 5 10 7 10 7 10 9 13 5 3 4 5 9 6 4 2 4 8 8 6 1 3 1 4 6
24 21 16 12 8 5 3 3 3 3 5 15 13 10 8 14 7 14 18 8 7 10 9 3 12 11 9 13 8 6 5 2 2 4 4 4 5 6 4 4 3 5 5 4 2
24 21 16 13 8 5 6 7 1 7 3 6 7 4 11 10 7 16 16 4 8 13 12 6 2 6 8 8 10 9 9 6 3 2 4 3 7 8 7 8 6 7 7 5 4
24 22 18 15 5 5 5 5 1 4 3 6 9 5 6 7 5 16 14 6 3 13 12 2 3 6 6 11 6 8 2 2 9 2 1 5 4 7 10 7 6 6 6 6 1
25 23 21 15 6 3 3 7 6 7 4 6 7 9 4 7 16 10 5 4 7 7 7 5 7 8 5 7 7 2 9 5 1 2 5 4 1 6 3 6 7 9 5 8 7
24 22 20 8 3 1 3 10 8 4 7 1 2 8 6 3 7 8 5 4 3 4 5 5 1 4 2 4 4 7 10 8 5 3 2 6 3 4 3 7 4 6 7 8 7
23 21 12 5 3 3 9 5 3 3 2 4 5 8 13 7 8 16 15 9 6 7 4 8 4 2 4 7 3 3 7 2 2 1 4 2 6 9 1 5 7 9 8 8 6
24 20 14 9 5 3 6 1 4 2 3 3 1 11 5 14 8 15 15 10 6 5 6 7 3 6 4 4 8 8 6 4 5 4 3 4 4 4 1 8 9 8 7 7 8
24 14 6 6 4 2 2 3 2 3 4 7 3 8 5 3 8 12 16 14 6 6 4 5 4 3 7 2 9 6 5 3 4 2 3 4 4 4 5 6 8 5 7 8 8
11 8 5 6 4 2 1 1 2 2 4 3 0 2 4 2 12 11 14 8 6 2 3 3 5 4 3 2 5 3 6 3 2 4 2 3 3 4 5 5 8 7 6 7 8
8 3 4 5 4 3 2 3 4 3 2 4 5 3 5 3 6 5 5 4 2 5 2 5 5 3 5 3 6 3 4 1 4 2 3 1 3 4 4 5 9 9 8 8 8
4 3 4 5 2 1 1 2 4 4 5 3 4 5 5 6 4 4 5 3 5 6 5 3 4 4 3 3 4 5 6 4 3 3 1 3 4 3 5 7 9 9 7 6 6
2 1 2 4 1 1 0 1 2 4 6 3 6 8 5 4 3 4 4 7 7 5 3 2 3 5 4 4 2 2 4 3 5 3 5 5 3 3 6 7 7 7 5 2 2
2 1 3 3 2 3 3 1 2 1 3 4 2 2 3 5 8 4 4 8 8 6 10 5 3 2 3 4 2 5 7 7 4 3 3 5 1 3 4 4 3 2 3 3 3
3 2 1 2 2 3 3 1 3 4 4 5 4 7 4 3 3 4 4 6 7 3 4 3 4 4 8 4 5 3 5 8 10 6 3 2 6 4 3 4 6 4 5 5 5
2 2 1 1 3 3 1 3 3 4 4 4 7 9 9 5 4 4 2 6 3 6 3 2 2 2 3 5 4 1 4 5 4 5 6 6 13 7 11 9 7 10 9 8 4
2 1 1 2 1 2 4 3 5 3 5 7 4 9 11 10 9 10 10 8 6 5 3 2 3 2 2 4 2 4 7 10 6 6 7 7 11 10 8 8 7 8 7 5 5
Wind_Direction
301 284 291 286 284 284 294 303 330 323 294 284 282 277 244 210 220 197 210 237 243 260 296 317 285 342 324 257 236 276 270 245 254 170 124 139 136 355 84 122 110 72 39 129 143
293 287 278 283 284 276 274 286 304 330 307 275 280 255 211 193 179 217 204 216 233 241 317 6 360 347 299 248 207 220 214 247 272 261 142 156 147 126 143 136 116 93 83 122 144
275 283 271 275 277 281 275 273 290 299 312 279 280 279 196 178 159 207 203 192 187 178 238 20 10 359 275 260 205 211 253 257 354 359 64 159 160 150 156 176 161 146 143 140 154
263 267 268 266 270 279 275 275 277 286 292 288 265 259 210 168 211 177 186 179 173 160 135 57 37 356 282 260 193 248 79 325 338 350 0 169 143 157 197 97 132 138 143 151 160
253 255 262 256 256 269 277 269 282 279 274 289 246 237 202 226 259 166 168 182 181 173 148 102 107 165 276 291 240 243 118 119 351 321 310 150 133 160 118 85 88 128 144 157 162
245 250 257 245 243 265 271 270 280 284 275 272 248 234 235 214 163 170 154 161 188 176 141 133 103 310 297 288 339 306 191 137 171 107 359 168 129 202 130 128 114 131 158 165 167
241 244 253 235 238 261 274 266 273 291 276 257 246 224 250 236 179 165 175 180 178 188 149 145 159 124 348 286 307 271 155 143 156 148 163 329 62 232 145 136 138 159 166 166 177
234 236 246 231 241 262 265 264 268 291 283 258 243 213 259 208 163 178 180 179 179 185 203 187 179 123 162 318 301 233 197 151 118 165 263 219 196 201 103 135 157 176 169 166 173
229 231 235 232 241 253 268 264 273 288 278 260 251 207 223 150 159 202 183 194 178 192 221 194 155 192 126 252 193 274 182 145 119 14 145 209 88 102 79 146 207 179 164 159 163
226 225 224 223 230 253 267 270 276 308 261 266 252 184 196 201 176 185 185 184 164 173 194 206 192 221 159 222 185 213 217 124 116 28 343 183 122 93 99 121 260 176 171 107 90
220 220 215 211 220 237 276 303 217 257 187 222 322 217 148 161 155 178 184 178 184 160 182 204 186 191 219 190 232 276 353 354 61 35 39 234 233 163 150 125 174 300 44 151 176
209 209 203 195 204 217 241 260 339 22 267 237 264 235 168 144 152 177 174 180 171 175 165 151 211 193 92 140 149 159 173 292 331 22 356 309 256 261 277 147 208 264 255 235 241
199 197 190 183 175 195 229 254 2 3 310 308 191 201 188 204 167 175 172 188 185 174 172 184 162 191 168 216 163 169 198 200 292 142 207 330 274 246 240 212 203 221 228 264 290
189 186 176 163 157 208 239 273 248 25 262 197 181 190 251 212 148 156 190 150 201 196 158 228 155 154 174 181 182 181 197 122 173 198 189 134 292 270 230 160 181 235 239 238 122
180 174 173 151 104 152 42 158 120 80 272 122 153 144 287 188 131 179 185 119 203 191 148 151 155 157 157 173 176 121 101 172 244 22 1 203 179 254 260 162 191 214 114 87 74
165 165 162 148 95 102 146 133 101 126 249 197 340 159 186 154 180 127 157 237 178 75 93 96 346 103 141 86 119 139 109 97 76 34 268 233 214 249 229 207 130 97 95 86 73
149 155 137 124 78 107 159 177 139 221 307 165 204 144 177 163 144 161 168 174 149 140 156 120 93 71 145 95 103 160 142 97 76 147 220 145 213 244 275 65 113 141 123 118 105
147 137 96 94 82 98 162 111 222 230 294 322 221 116 142 173 143 165 160 168 182 192 144 150 156 192 175 161 165 186 184 158 171 182 207 350 240 257 39 57 98 99 102 110 119
139 107 69 24 53 17 160 226 65 324 312 330 86 165 175 229 150 149 178 176 176 198 143 146 88 146 148 78 138 185 214 15 98 45 69 193 267 318 229 129 114 160 150 161 142
103 80 62 13 14 330 71 33 47 282 329 263 102 318 151 287 132 152 168 167 131 218 12 97 118 139 56 81 69 136 134 80 345 131 204 239 254 222 202 207 166 144 170 150 145
68 63 11 352 10 41 359 11 319 36 10 324 11 29 62 175 124 113 122 51 229 111 10 111 114 137 136 241 153 130 158 156 135 112 167 160 230 316 60 270 165 170 171 153 147
46 76 337 5 50 79 79 318 338 322 249 338 2 48 30 8 70 110 119 104 255 116 94 14 103 123 121 8 355 218 161 144 128 241 238 136 266 25 37 31 102 88 65 66 89
85 86 39 355 101 94 55 292 298 329 5 2 33 52 30 26 87 62 76 14 83 66 110 152 119 107 91 3 22 216 207 197 126 85 201 148 256 6 62 62 51 71 66 77 138
98 90 344 43 205 125 145 85 43 336 327 349 94 113 65 31 41 58 65 40 57 77 48 40 69 66 115 101 139 170 193 206 196 146 174 211 76 93 108 125 128 142 209 270 334
35 60 355 26 33 14 27 297 89 12 317 346 41 33 34 81 55 62 47 101 55 32 58 77 90 92 101 70 33 61 175 207 217 229 201 77 230 266 324 295 276 244 223 203 201
96 140 122 49 292 356 20 343 104 141 10 336 87 52 59 72 77 119 98 75 92 45 65 357 123 94 60 120 103 136 269 266 272 259 279 275 268 267 270 271 266 264 271 279 302
97 150 300 325 320 343 5 11 25 71 77 20 50 86 54 47 58 69 78 51 109 120 117 106 125 98 122 353 73 338 219 209 210 207 203 229 241 253 263 254 240 251 246 194 118